Find Insat 4A

NORAD ID: 28911 Int'l Des: 2005-049 Owner: ISRO Country: IN operational
HEOCIRCULAR

Current View

Loading 3D Globe...

About Insat 4A

Description loading...

Upcoming Passes

Passes for default location (London). Set your location on the main map for personalized predictions.

Altitude History

Loading altitude history...

Two-Line Element Set

1 28911U 05049A 26150.24220475 -.00000242 00000-0 00000+0 0 9997
2 28911 6.3937 71.9658 0004164 124.9704 260.7957 0.99200070 45258
Epoch: May 30, 2026 • Age: 17 hours

Current Status

Altitude 36106.0 km
Velocity 3.06 km/s
Sub-Earth Point -6.35°S, 120.14°E
Launch Date Dec 21, 2005
Age 20.4 years
Type other

Technical Details

Classification Payload
Mass 3081.00 kg
Dry Mass 1425.00 kg
Total Mass 3081.00 kg
Length 2.80 m
Diameter 2.00 m
Span 15.40 m
Shape Box + 2 Pan
Manufacturer ISAC
Bus Type I3K
Phase Status In Orbit
Owner/State ISRO/IN

Most Searched